Location: North Evanston
(42.0634°N, 87.6976°W)
Time: 05:22:44
(UTC+00:00)

Tiros 1 despin weight - Pass Details

Date: 17 May 2026
Orbit: 554 x 591 km, 48.2° (Epoch: 7 June)

Event Time Altitude Azimuth Distance (km) Brightness Sun altitude
Exits shadow 08:50:05 14° 172° (S) 1,633 ? -15.5°
Maximum altitude 08:52:13 19° 136° (SE) 1,366 ? -15.2°
Drops below altitude 10° 08:55:15 10° 90° (E) 1,853 ? -14.8°
Sets 08:57:59 0° 73° (ENE) 2,746 ? -14.4°
